When you browse on this site, cookies collect data to enhance your experience and personalize the content and advertising you see.
Visit our Privacy Policy to learn more. By continuing to use the site, you agree to this use of cookies and data.
  • In Spain
  • List of Countries
  • For 7 days
  • Water Temperature
  • Satellite Maps
  • Weather Map
  • Weather Widgets
  • user-avatar
    Login

    Hourly Weather Verbovo

    Today, 22 May, Wednesday

    Time Temperature Precipitation Wind Pressure Humidity
    00:00 +14°C° 0 mm 2 mps 741 mmHg 93%
    01:00 +14°C° 0 mm 2 mps 740 mmHg 93%
    02:00 +14°C° 0 mm 1 mps 740 mmHg 93%
    03:00 +14°C° 0 mm 2 mps 739 mmHg 92%
    04:00 +14°C° 0 mm 2 mps 739 mmHg 92%
    05:00 +14°C° 0 mm 2 mps 739 mmHg 92%
    06:00 +16°C° 0 mm 2 mps 739 mmHg 88%
    07:00 +17°C° 0 mm 2 mps 739 mmHg 83%
    08:00 +18°C° 0 mm 2 mps 739 mmHg 76%
    09:00 +19°C° 0.1 mm 2 mps 739 mmHg 73%
    10:00 +20°C° 0.1 mm 2 mps 739 mmHg 70%
    11:00 +23°C° 0.1 mm 2 mps 738 mmHg 67%
    12:00 +23°C° 0.4 mm 2 mps 738 mmHg 65%
    13:00 +23°C° 0.4 mm 2 mps 738 mmHg 64%
    14:00 +24°C° 0.4 mm 2 mps 737 mmHg 62%
    15:00 +24°C° 0.5 mm 2 mps 737 mmHg 63%
    16:00 +24°C° 0.5 mm 2 mps 737 mmHg 65%
    17:00 +23°C° 0.5 mm 2 mps 737 mmHg 67%
    18:00 +22°C° 0.1 mm 1 mps 737 mmHg 72%
    19:00 +20°C° 0.1 mm 1 mps 737 mmHg 77%
    20:00 +18°C° 0.1 mm 1 mps 736 mmHg 83%
    21:00 +18°C° 0 mm 1 mps 736 mmHg 84%
    22:00 +16°C° 0 mm 1 mps 736 mmHg 85%
    23:00 +16°C° 0 mm 1 mps 736 mmHg 86%

    Tomorrow, 23 May, Thursday

    Time Temperature Precipitation Wind Pressure Humidity
    00:00 +15°C° 0 mm 1 mps 736 mmHg 86%
    01:00 +15°C° 0 mm 1 mps 736 mmHg 87%
    02:00 +15°C° 0 mm 1 mps 736 mmHg 87%
    03:00 +15°C° 0 mm 2 mps 736 mmHg 87%
    04:00 +15°C° 0 mm 2 mps 736 mmHg 86%
    05:00 +15°C° 0 mm 2 mps 736 mmHg 85%
    06:00 +16°C° 0 mm 2 mps 736 mmHg 81%
    07:00 +18°C° 0 mm 2 mps 736 mmHg 77%
    08:00 +20°C° 0 mm 2 mps 736 mmHg 73%
    09:00 +21°C° 0 mm 3 mps 736 mmHg 69%
    10:00 +22°C° 0 mm 3 mps 736 mmHg 65%
    11:00 +25°C° 0 mm 4 mps 736 mmHg 60%
    12:00 +25°C° 0.2 mm 4 mps 736 mmHg 60%
    13:00 +25°C° 0.2 mm 4 mps 735 mmHg 60%
    14:00 +25°C° 0.2 mm 5 mps 735 mmHg 60%
    15:00 +25°C° 0.4 mm 4 mps 735 mmHg 64%
    16:00 +24°C° 0.4 mm 3 mps 735 mmHg 69%
    17:00 +24°C° 0.4 mm 3 mps 735 mmHg 73%
    18:00 +21°C° 0.1 mm 2 mps 735 mmHg 78%
    19:00 +20°C° 0.1 mm 2 mps 735 mmHg 82%
    20:00 +18°C° 0.1 mm 2 mps 735 mmHg 87%
    21:00 +18°C° 0.3 mm 2 mps 735 mmHg 88%
    22:00 +17°C° 0.3 mm 2 mps 736 mmHg 90%
    23:00 +16°C° 0.3 mm 1 mps 736 mmHg 91%

    Day after tomorrow, 24 May, Friday

    Time Temperature Precipitation Wind Pressure Humidity
    00:00 +16°C° 0 mm 2 mps 736 mmHg 92%
    01:00 +15°C° 0 mm 2 mps 736 mmHg 93%
    02:00 +15°C° 0 mm 2 mps 736 mmHg 94%
    03:00 +15°C° 0 mm 2 mps 736 mmHg 95%
    04:00 +15°C° 0 mm 2 mps 736 mmHg 96%
    05:00 +14°C° 0 mm 3 mps 737 mmHg 97%
    06:00 +16°C° 0 mm 3 mps 737 mmHg 94%
    07:00 +17°C° 0 mm 3 mps 737 mmHg 91%
    08:00 +17°C° 0 mm 3 mps 737 mmHg 88%
    09:00 +18°C° 0 mm 3 mps 737 mmHg 86%
    10:00 +18°C° 0 mm 3 mps 737 mmHg 85%
    11:00 +19°C° 0 mm 3 mps 737 mmHg 83%
    12:00 +19°C° 0 mm 3 mps 737 mmHg 82%
    13:00 +19°C° 0 mm 3 mps 737 mmHg 80%
    14:00 +20°C° 0 mm 3 mps 737 mmHg 79%
    15:00 +20°C° 0 mm 3 mps 737 mmHg 79%
    16:00 +20°C° 0 mm 3 mps 737 mmHg 78%
    17:00 +20°C° 0 mm 4 mps 737 mmHg 78%
    18:00 +19°C° 0.2 mm 3 mps 737 mmHg 83%
    19:00 +18°C° 0.2 mm 3 mps 736 mmHg 87%
    20:00 +17°C° 0.2 mm 3 mps 736 mmHg 92%
    21:00 +16°C° 0.6 mm 3 mps 736 mmHg 93%
    22:00 +16°C° 0.6 mm 3 mps 736 mmHg 94%
    23:00 +14°C° 0.6 mm 4 mps 736 mmHg 96%

    25 May, Saturday

    Time Temperature Precipitation Wind Pressure Humidity
    00:00 +14°C° 0.6 mm 3 mps 736 mmHg 96%
    01:00 +14°C° 0.6 mm 3 mps 736 mmHg 97%
    02:00 +13°C° 0.6 mm 3 mps 735 mmHg 98%
    03:00 +13°C° 0.3 mm 3 mps 735 mmHg 97%
    04:00 +15°C° 0.3 mm 2 mps 735 mmHg 97%
    05:00 +15°C° 0.3 mm 2 mps 735 mmHg 97%
    06:00 +16°C° 0.1 mm 2 mps 735 mmHg 94%
    07:00 +17°C° 0.1 mm 2 mps 735 mmHg 92%
    08:00 +18°C° 0.1 mm 2 mps 735 mmHg 89%
    09:00 +20°C° 0.9 mm 1 mps 734 mmHg 84%
    10:00 +21°C° 0.9 mm 1 mps 734 mmHg 79%
    11:00 +22°C° 0.9 mm 1 mps 734 mmHg 75%
    12:00 +21°C° 1.6 mm 1 mps 734 mmHg 77%
    13:00 +21°C° 1.6 mm 1 mps 734 mmHg 80%
    14:00 +21°C° 1.6 mm 1 mps 733 mmHg 83%
    15:00 +20°C° 0.4 mm 1 mps 733 mmHg 83%
    16:00 +19°C° 0.4 mm 2 mps 733 mmHg 84%
    17:00 +19°C° 0.4 mm 2 mps 733 mmHg 84%
    18:00 +18°C° 0.1 mm 2 mps 733 mmHg 87%
    19:00 +17°C° 0.1 mm 2 mps 733 mmHg 90%
    20:00 +16°C° 0.1 mm 2 mps 733 mmHg 93%
    21:00 +15°C° 0 mm 2 mps 733 mmHg 92%
    22:00 +13°C° 0 mm 3 mps 733 mmHg 92%
    23:00 +12°C° 0 mm 3 mps 733 mmHg 91%

    26 May, Sunday

    Time Temperature Precipitation Wind Pressure Humidity
    00:00 +12°C° 0 mm 3 mps 733 mmHg 92%
    01:00 +11°C° 0 mm 3 mps 733 mmHg 94%
    02:00 +10°C° 0 mm 3 mps 734 mmHg 95%
    03:00 +10°C° 0 mm 3 mps 734 mmHg 95%
    04:00 +10°C° 0 mm 3 mps 734 mmHg 95%
    05:00 +10°C° 0 mm 3 mps 734 mmHg 95%
    06:00 +11°C° 0 mm 3 mps 734 mmHg 90%
    07:00 +12°C° 0 mm 3 mps 735 mmHg 85%
    08:00 +13°C° 0 mm 3 mps 735 mmHg 80%
    09:00 +14°C° 0 mm 4 mps 735 mmHg 75%
    10:00 +15°C° 0 mm 4 mps 735 mmHg 69%
    11:00 +17°C° 0 mm 4 mps 735 mmHg 64%
    12:00 +18°C° 0 mm 4 mps 735 mmHg 63%
    13:00 +17°C° 0 mm 5 mps 734 mmHg 62%
    14:00 +19°C° 0 mm 5 mps 734 mmHg 61%
    15:00 +17°C° 0.1 mm 5 mps 734 mmHg 63%
    16:00 +18°C° 0.1 mm 4 mps 734 mmHg 65%
    17:00 +18°C° 0.1 mm 4 mps 734 mmHg 67%
    18:00 +16°C° 0 mm 3 mps 734 mmHg 75%
    19:00 +14°C° 0 mm 2 mps 734 mmHg 83%
    20:00 +12°C° 0 mm 2 mps 734 mmHg 92%
    21:00 +12°C° 0.1 mm 2 mps 734 mmHg 91%
    22:00 +11°C° 0.1 mm 3 mps 733 mmHg 91%
    23:00 +12°C° 0.1 mm 3 mps 733 mmHg 90%

    27 May, Monday

    Time Temperature Precipitation Wind Pressure Humidity
    00:00 +11°C° 0.2 mm 3 mps 733 mmHg 91%
    01:00 +10°C° 0.2 mm 3 mps 733 mmHg 93%
    02:00 +10°C° 0.2 mm 3 mps 733 mmHg 94%
    03:00 +8°C° 0.1 mm 4 mps 733 mmHg 94%
    04:00 +8°C° 0.1 mm 4 mps 733 mmHg 94%
    05:00 +7°C° 0.1 mm 5 mps 733 mmHg 94%
    06:00 +8°C° 0 mm 5 mps 734 mmHg 88%
    07:00 +9°C° 0 mm 6 mps 734 mmHg 82%
    08:00 +9°C° 0 mm 7 mps 734 mmHg 76%
    09:00 +9°C° 0.2 mm 7 mps 735 mmHg 75%
    10:00 +10°C° 0.2 mm 7 mps 735 mmHg 74%
    11:00 +10°C° 0.2 mm 8 mps 735 mmHg 74%
    12:00 +10°C° 0 mm 7 mps 736 mmHg 74%
    13:00 +10°C° 0 mm 7 mps 736 mmHg 74%
    14:00 +11°C° 0 mm 7 mps 736 mmHg 75%
    15:00 +11°C° 0 mm 7 mps 737 mmHg 74%
    16:00 +12°C° 0 mm 7 mps 737 mmHg 73%
    17:00 +12°C° 0 mm 7 mps 738 mmHg 72%
    18:00 +11°C° 0 mm 6 mps 738 mmHg 76%
    19:00 +10°C° 0 mm 5 mps 738 mmHg 80%
    20:00 +10°C° 0 mm 4 mps 739 mmHg 84%
    21:00 +9°C° 0 mm 3 mps 739 mmHg 87%
    22:00 +8°C° 0 mm 3 mps 739 mmHg 90%
    23:00 +7°C° 0 mm 3 mps 740 mmHg 93%
    Show more